Location: Bay Ridge
(40.6340°N, 74.0146°W)
Time: 04:38:06
(UTC+00:00)

Helios 1A Rocket - Pass Details

Date: 15 November 2019
Orbit: 563 x 588 km, 98.3° (Epoch: 09 December)

Event Time Altitude Azimuth Distance (km) Brightness Sun altitude
Rises 10:03:59 0° 20° (NNE) 2,806 6.6 -18.7°
Reaches altitude 10° 10:06:14 10° 26° (NNE) 1,898 5.8 -18.3°
Maximum altitude 10:10:10 44° 99° (E) 802 4.1 -17.6°
Drops below altitude 10° 10:14:03 10° 173° (S) 1,869 5.7 -16.8°
Sets 10:16:14 0° 179° (S) 2,758 6.5 -16.4°
